[[{"header":{"parameterUnit":"m.s-1","parameterCategory":1,"la1":30.2991,"la2":30.254,"lo1":-89.0895,"lo2":-89.0444,"dy":0.0017,"dx":0.0017,"nx":28,"ny":28,"refTime":"2023-08-10T21:00:00:Z","depth":0,"parameterNumber":2,"parameterNumberName":"U-component_of_WINDS"},"data":[0,0,0,0,0,0,0,0,0,0,0,0,0,0,0,0,0,0,0,0,0,0,0,0,0,0,0,0,0,0,0,0,0,0,0,0,0,0,0,0,0,0,0,0,0,0,0,0,0,0,0,0,0,0,0,0,0,0,1.0843,1.0845,0,1.0986,1.0988,1.0989,1.0945,1.0942,1.0939,1.0936,1.1089,1.1095,1.1102,0,0,0,0,0,0,0,0,0,0,0,0,0,1.054,1.0546,1.0843,1.0845,1.0847,1.0986,1.0988,1.099,1.0945,1.0941,1.0938,1.0934,1.1086,1.1095,1.1103,0,0,0,0,0,0,0,0,0,0,0,0,0,1.0676,1.0548,1.0843,1.0841,1.0842,1.0985,1.0988,1.099,1.0946,1.0941,1.0937,1.0932,1.1084,1.1094,1.1104,1.126,0,0,1.1136,1.114,0,0,0,0,0,0,0,0,1.0669,1.0687,1.084,1.0842,1.0843,1.0943,1.0937,1.1081,1.0947,1.0907,1.0936,1.093,1.1044,1.1058,1.1095,1.1267,1.1273,1.1137,1.1143,1.1147,1.115,0,0,0,0,0,0,0,1.0659,1.0681,1.09,1.0842,1.0844,1.0836,1.085,1.0964,1.1,1.091,1.0907,1.0924,1.1044,1.1085,1.1098,1.1276,1.1136,1.1146,1.1152,1.1156,1.1586,1.1591,0,0,0,0,0,0,1.0648,1.0673,1.0895,1.0904,1.0743,1.0845,1.0861,1.0916,1.0998,1.1006,1.0928,1.0922,1.1069,1.1086,1.1103,1.1294,1.1147,1.1157,1.1163,1.1581,1.1587,1.1593,0,0,0,0,0,0,1.0641,1.0668,1.089,1.0788,1.0816,1.0855,1.0917,1.0921,1.0961,1.1012,1.1019,1.0962,1.1066,1.1089,1.1221,1.1298,1.1162,1.1171,1.1575,1.1583,1.159,1.1675,0,0,0,0,0,0,1.0633,1.0666,1.0723,1.079,1.0821,1.1004,1.0921,1.0927,1.0978,1.0971,1.1046,1.1054,1.1064,1.1206,1.1232,1.131,1.1179,1.1568,1.1579,1.1588,1.1665,1.1684,1.1701,0,0,0,0,0,1.0622,1.0742,1.0726,1.0754,1.0894,1.1008,1.1026,1.1034,1.0984,1.1044,1.1077,1.1051,1.1285,1.122,1.1248,1.1331,1.1564,1.1576,1.1587,1.1657,1.1681,1.17,0,0,0,0,0,0,1.0686,1.0751,1.0734,1.0879,1.0938,1.1,1.1076,1.1058,1.1135,1.1125,1.1134,1.1151,1.1288,1.1322,1.1249,1.1488,1.1417,1.1435,1.1461,1.1484,1.1501,1.1492,1.1188,0,0,0,0,0,1.0716,1.0801,1.0854,1.0977,1.1007,1.1036,1.1086,1.1087,1.115,1.1176,1.1218,1.1282,1.137,1.1428,1.1511,1.1669,1.1687,1.174,1.1757,1.1772,1.1789,1.1878,1.1904,1.1631,1.1631,1.1631,0,0,1.0781,1.0827,1.0881,1.0991,1.1037,1.1128,1.1058,1.1156,1.1225,1.1191,1.132,1.1353,1.1425,1.1572,1.1638,1.1605,1.1867,1.1787,1.1798,1.1807,1.1893,1.1919,1.1942,1.1639,1.1638,1.1637,0,0,1.0947,1.0988,1.1096,1.1144,1.1214,1.1232,1.1258,1.1324,1.1344,1.1473,1.145,1.1533,1.1683,1.1736,1.1783,1.197,1.195,1.1996,1.2091,1.2178,1.22,1.2219,1.229,1.2314,1.2012,1.2012,1.2012,0,1.1019,1.1153,1.1155,1.1256,1.1307,1.1278,1.139,1.1437,1.1531,1.1569,1.1528,1.1718,1.1764,1.1925,1.197,1.2008,1.2041,1.199,1.2196,1.2215,1.2233,1.2301,1.2327,1.2018,1.2017,1.2017,1.2016,0,1.1241,1.1334,1.1414,1.1504,1.1564,1.167,1.1691,1.1751,1.1747,1.1771,1.1904,1.1958,1.2054,1.2091,1.2088,1.2252,1.223,1.2192,1.2123,1.2265,1.2329,1.2354,1.2026,1.2024,1.2022,1.2021,0,0,1.1452,1.1543,1.1572,1.1615,1.169,1.1764,1.1869,1.1961,1.2015,1.2081,1.2173,1.2301,1.2267,1.2321,1.2323,1.2399,1.2549,1.2353,1.2355,1.2392,1.2738,1.2769,1.2798,1.2534,1.2539,1.2543,1.2733,0,1.1627,1.1811,1.1817,1.1987,1.2076,1.205,1.2143,1.2201,1.2226,1.2307,1.2335,1.2427,1.2374,1.2407,1.248,1.2515,1.2619,1.25,1.2624,1.2629,1.2611,1.2831,1.2863,1.304,1.2758,1.2762,1.2765,0,1.1856,1.1929,1.2107,1.2172,1.221,1.2293,1.2379,1.2455,1.2521,1.2534,1.2594,1.2586,1.2698,1.2621,1.2777,1.2696,1.2747,1.2772,1.2779,1.2794,1.2709,1.2857,1.3096,1.3125,1.2804,1.2801,1.2798,0,1.1998,1.214,1.2266,1.2302,1.238,1.244,1.2476,1.2537,1.2592,1.2668,1.2705,1.2792,1.2842,1.2911,1.2929,1.287,1.3087,1.301,1.3104,1.3104,1.3155,1.3152,1.341,1.318,1.3179,1.3179,1.3178,0,1.2195,1.2306,1.2331,1.2409,1.2534,1.254,1.2665,1.2696,1.2751,1.2838,1.282,1.2901,1.2917,1.3003,1.3017,1.3147,1.3168,1.3185,1.3188,1.3189,1.3188,1.3225,1.3215,1.3186,1.3184,1.3183,1.3182,0,1.2376,1.2396,1.2533,1.2595,1.2613,1.2703,1.2758,1.2835,1.2857,1.2967,1.2993,1.303,1.313,1.3153,1.3272,1.3281,1.3437,1.3426,1.3414,1.3415,1.351,1.3502,1.3805,1.3847,1.3585,1.3587,1.3589,0,1.2502,1.2588,1.2659,1.2714,1.2753,1.2842,1.2899,1.2908,1.2968,1.3051,1.3119,1.3216,1.3296,1.3458,1.3497,1.3589,1.3583,1.3683,1.3597,1.3596,1.359,1.3587,1.3597,1.3701,1.3703,1.3706,1.3707,0,1.2726,1.2732,1.2813,1.2899,1.2967,1.3035,1.31,1.3148,1.3166,1.3235,1.3337,1.3398,1.352,1.3619,1.3712,1.3751,1.3735,1.3733,1.3761,1.3765,1.3757,1.3767,1.3464,1.3728,1.3725,1.3724,1.3723,1.3722,1.2887,1.2963,1.3026,1.3118,1.3167,1.3229,1.3305,1.3337,1.3421,1.352,1.352,1.3633,1.3699,1.3821,1.3866,1.3956,1.3926,1.3965,1.3975,1.3986,1.3997,1.3739,1.3972,1.3972,1.3971,1.3971,1.397,0,1.3114,1.3153,1.3237,1.3329,1.3402,1.3376,1.3447,1.3512,1.361,1.3672,1.375,1.3869,1.3965,1.4011,1.4107,1.4171,1.4166,1.4196,1.4194,1.4204,1.4016,1.3985,1.4199,1.4199,1.4198,1.4198,1.4198,1.4198,1.3241,1.3369,1.3383,1.3537,1.3575,1.3684,1.3728,1.3786,1.3836,1.3969,1.4048,1.4076,1.4134,1.4234,1.4322,1.4333,1.4372,1.4407,1.4415,1.424,1.4217,1.4195,1.4166,1.4414,1.4414,1.4596,1.4598,1.4599]},{"header":{"parameterUnit":"m.s-1","parameterCategory":1,"la1":30.2991,"la2":30.254,"lo1":-89.0895,"lo2":-89.0444,"dy":0.0017,"dx":0.0017,"nx":28,"ny":28,"refTime":"2023-08-10T21:00:00:Z","depth":0,"parameterNumber":3,"parameterNumberName":"V-component_of_WINDS"},"data":[0,0,0,0,0,0,0,0,0,0,0,0,0,0,0,0,0,0,0,0,0,0,0,0,0,0,0,0,0,0,0,0,0,0,0,0,0,0,0,0,0,0,0,0,0,0,0,0,0,0,0,0,0,0,0,0,0,0,6.3718,6.372,0,6.3926,6.3928,6.3931,6.3918,6.3915,6.3912,6.3909,6.411,6.4118,6.4126,0,0,0,0,0,0,0,0,0,0,0,0,0,6.3299,6.3306,6.3718,6.3721,6.3723,6.3926,6.3928,6.3931,6.3919,6.3915,6.3911,6.3908,6.4107,6.4117,6.4126,0,0,0,0,0,0,0,0,0,0,0,0,0,6.3491,6.3309,6.3717,6.3742,6.3746,6.3925,6.3928,6.3932,6.392,6.3915,6.3911,6.3906,6.4104,6.4116,6.4128,6.4292,0,0,6.4165,6.417,0,0,0,0,0,0,0,0,6.348,6.3506,6.3736,6.374,6.3746,6.3892,6.3854,6.4052,6.3921,6.3853,6.3909,6.3904,6.404,6.4057,6.4106,6.4302,6.431,6.4166,6.4173,6.4179,6.4182,0,0,0,0,0,0,0,6.3467,6.3497,6.38,6.3739,6.3745,6.3738,6.3761,6.3891,6.3969,6.3859,6.3858,6.3884,6.4042,6.4094,6.411,6.4313,6.4166,6.4177,6.4184,6.4189,6.4655,6.466,0,0,0,0,0,0,6.345,6.3486,6.3793,6.3806,6.3599,6.3749,6.3775,6.3849,6.3967,6.3981,6.3887,6.3883,6.4075,6.4096,6.4117,6.432,6.4179,6.419,6.4197,6.465,6.4656,6.4662,0,0,0,0,0,0,6.3441,6.3477,6.3785,6.3646,6.3685,6.3762,6.3845,6.3856,6.3908,6.3989,6.4002,6.3928,6.4073,6.41,6.425,6.4326,6.4195,6.4207,6.4644,6.4652,6.4659,6.4724,0,0,0,0,0,0,6.3429,6.3474,6.354,6.3648,6.3693,6.3918,6.385,6.3863,6.3931,6.3926,6.403,6.4043,6.4071,6.4232,6.4262,6.4341,6.4216,6.4638,6.4648,6.4657,6.4716,6.4733,6.4748,0,0,0,0,0,6.3414,6.3547,6.3544,6.3581,6.3778,6.3923,6.3948,6.3981,6.3937,6.4002,6.4054,6.404,6.4312,6.4247,6.4281,6.4364,6.4633,6.4645,6.4656,6.4708,6.473,6.4748,0,0,0,0,0,0,6.3442,6.3562,6.3559,6.3732,6.3818,6.392,6.4004,6.4002,6.4099,6.409,6.4124,6.4147,6.4298,6.4345,6.4271,6.453,6.4466,6.4485,6.4495,6.4516,6.4532,6.4518,6.4226,0,0,0,0,0,6.3469,6.3581,6.3678,6.3821,6.3864,6.3927,6.3991,6.401,6.4098,6.4133,6.4196,6.4279,6.4384,6.4452,6.4552,6.4721,6.4744,6.4795,6.4811,6.4824,6.484,6.4934,6.4959,6.47,6.47,6.4699,0,0,6.3524,6.3604,6.3672,6.3829,6.3897,6.4009,6.3957,6.4077,6.416,6.415,6.4298,6.4346,6.4441,6.4602,6.4676,6.4646,6.4917,6.4839,6.4848,6.4858,6.4949,6.4973,6.4995,6.4707,6.4706,6.4705,0,0,6.3684,6.3755,6.3884,6.3955,6.4061,6.4102,6.4132,6.4236,6.427,6.4419,6.4414,6.451,6.4689,6.4758,6.4815,6.5001,6.4991,6.5032,6.5118,6.5209,6.5229,6.5248,6.5315,6.5339,6.5048,6.5048,6.5048,0,6.3739,6.3912,6.3949,6.4072,6.4141,6.4141,6.427,6.4334,6.4466,6.4512,6.4477,6.4704,6.4766,6.4944,6.499,6.5036,6.5071,6.5022,6.5224,6.5243,6.526,6.5325,6.535,6.5052,6.5052,6.5051,6.5051,0,6.3975,6.4095,6.4185,6.4318,6.4396,6.4521,6.4573,6.4647,6.4658,6.4702,6.4853,6.4929,6.5046,6.5088,6.5098,6.5268,6.5246,6.5217,6.5155,6.5289,6.5351,6.5376,6.5059,6.5057,6.5056,6.5055,0,0,6.416,6.4313,6.4346,6.4407,6.4524,6.4615,6.4738,6.4857,6.492,6.501,6.5113,6.5265,6.5241,6.5306,6.5323,6.5403,6.5547,6.5365,6.5367,6.5398,6.5739,6.5762,6.579,6.554,6.5545,6.5549,6.5732,0,6.4333,6.4559,6.4595,6.4791,6.4902,6.4903,6.501,6.5092,6.5135,6.5232,6.5277,6.5386,6.5344,6.5384,6.5463,6.5513,6.5617,6.55,6.5635,6.564,6.5615,6.5822,6.5847,6.6016,6.5756,6.576,6.5763,0,6.4567,6.4669,6.4878,6.4982,6.5029,6.5126,6.5238,6.5332,6.5422,6.5448,6.5523,6.5531,6.5655,6.5586,6.5757,6.5677,6.5734,6.5767,6.5774,6.579,6.5711,6.5845,6.607,6.6097,6.5801,6.5798,6.5795,0,6.4683,6.4872,6.5022,6.5074,6.5198,6.5266,6.532,6.5407,6.5476,6.5572,6.5617,6.5724,6.5783,6.5864,6.5899,6.5845,6.6069,6.6001,6.6092,6.6092,6.6141,6.6138,6.6381,6.6174,6.6173,6.6173,6.6172,0,6.4875,6.5003,6.5077,6.5169,6.5312,6.535,6.5489,6.554,6.5618,6.5717,6.5721,6.5814,6.5855,6.5952,6.5979,6.6118,6.6143,6.6166,6.6172,6.6168,6.6165,6.6207,6.6197,6.618,6.6178,6.6177,6.6176,0,6.5031,6.5085,6.525,6.5355,6.5384,6.5485,6.5573,6.566,6.5703,6.5829,6.586,6.5926,6.6041,6.6085,6.6223,6.6241,6.6402,6.6397,6.6374,6.6376,6.6465,6.6457,6.6745,6.6785,6.6549,6.6552,6.6553,0,6.5151,6.5251,6.5368,6.5438,6.5496,6.5607,6.5679,6.5719,6.5793,6.5905,6.5979,6.6095,6.619,6.6373,6.6431,6.6537,6.6536,6.6629,6.6551,6.6544,6.654,6.6535,6.6545,6.6644,6.6647,6.6649,6.665,0,6.5359,6.5382,6.5489,6.5605,6.5692,6.5784,6.5873,6.5928,6.5981,6.6063,6.6184,6.6259,6.6403,6.6517,6.6627,6.6677,6.6673,6.6674,6.6701,6.6698,6.6682,6.6694,6.6416,6.6668,6.6666,6.6665,6.6664,6.6663,6.5503,6.5592,6.569,6.5808,6.588,6.5964,6.6053,6.6108,6.6211,6.6336,6.635,6.648,6.6567,6.6714,6.6769,6.6869,6.6843,6.6881,6.6892,6.6901,6.6909,6.6664,6.6888,6.6887,6.6887,6.6887,6.6886,0,6.5714,6.5777,6.5886,6.6013,6.6106,6.6097,6.6195,6.6272,6.6388,6.6471,6.6566,6.6704,6.6815,6.6882,6.6993,6.7059,6.706,6.7087,6.7084,6.7096,6.6924,6.6892,6.7085,6.7085,6.7085,6.7085,6.7085,6.7085,6.5835,6.5987,6.602,6.6206,6.6267,6.6399,6.6456,6.6532,6.6599,6.6755,6.685,6.6894,6.697,6.7086,6.7187,6.7203,6.7244,6.7274,6.7288,6.7128,6.7107,6.7088,6.7057,6.7282,6.7283,6.7452,6.7453,6.7454]}]]